Time,TemperatureF,DewpointF,PressureIn,WindDirection,WindDirectionDegrees,WindSpeedMPH,WindSpeedGustMPH,Humidity,HourlyPrecipIn,Conditions,Clouds,dailyrainin,SoftwareType,DateUTC
2013-03-15 00:01:00,55.0,45.0,30.11,WSW,242,0.0,1.0,70,0.00,,,0.00,,2013-03-15 07:01:00,
2013-03-15 00:11:00,55.0,45.0,30.11,WSW,242,0.0,1.0,70,0.00,,,0.00,,2013-03-15 07:11:00,
2013-03-15 00:21:00,54.0,44.0,30.10,South,171,0.0,3.0,69,0.00,,,0.00,,2013-03-15 07:21:00,
2013-03-15 00:31:00,54.0,44.0,30.10,South,171,0.0,1.0,70,0.00,,,0.00,,2013-03-15 07:31:00,
2013-03-15 00:42:00,54.0,44.0,30.10,South,171,0.0,1.0,70,0.00,,,0.00,,2013-03-15 07:42:00,
2013-03-15 00:52:00,53.0,44.0,30.09,South,171,1.0,2.0,71,0.00,,,0.00,,2013-03-15 07:52:00,
2013-03-15 01:02:00,52.0,43.0,30.09,South,171,0.0,1.0,71,0.00,,,0.00,,2013-03-15 08:02:00,
2013-03-15 01:12:00,52.0,43.0,30.09,South,171,0.0,1.0,71,0.00,,,0.00,,2013-03-15 08:12:00,
2013-03-15 01:22:00,52.0,44.0,30.09,South,171,0.0,1.0,74,0.00,,,0.00,,2013-03-15 08:22:00,
2013-03-15 01:31:00,51.0,43.0,30.09,South,171,0.0,1.0,74,0.00,,,0.00,,2013-03-15 08:31:00,
2013-03-15 01:41:00,51.0,43.0,30.09,South,171,0.0,1.0,74,0.00,,,0.00,,2013-03-15 08:41:00,
2013-03-15 01:52:00,50.0,43.0,30.08,South,171,0.0,2.0,76,0.00,,,0.00,,2013-03-15 08:52:00,
2013-03-15 02:01:00,50.0,43.0,30.09,South,171,0.0,0.0,76,0.00,,,0.00,,2013-03-15 09:01:00,
2013-03-15 02:11:00,50.0,43.0,30.09,South,171,0.0,0.0,76,0.00,,,0.00,,2013-03-15 09:11:00,
2013-03-15 02:21:00,49.0,42.0,30.09,South,171,0.0,1.0,77,0.00,,,0.00,,2013-03-15 09:21:00,
2013-03-15 02:33:00,49.0,42.0,30.11,South,171,0.0,0.0,78,0.00,,,0.00,,2013-03-15 09:33:00,
2013-03-15 02:42:00,49.0,42.0,30.11,South,171,0.0,0.0,78,0.00,,,0.00,,2013-03-15 09:42:00,
2013-03-15 02:53:00,48.0,42.0,30.10,South,171,0.0,1.0,79,0.00,,,0.00,,2013-03-15 09:53:00,
2013-03-15 03:02:00,48.0,42.0,30.10,South,171,0.0,0.0,79,0.00,,,0.00,,2013-03-15 10:02:00,
2013-03-15 03:12:00,48.0,42.0,30.10,South,171,0.0,0.0,79,0.00,,,0.00,,2013-03-15 10:12:00,
2013-03-15 03:23:00,48.0,41.0,30.10,South,171,0.0,0.0,78,0.00,,,0.00,,2013-03-15 10:23:00,
2013-03-15 03:32:00,48.0,41.0,30.08,South,171,0.0,1.0,78,0.00,,,0.00,,2013-03-15 10:32:00,
2013-03-15 03:41:00,48.0,41.0,30.08,South,171,0.0,1.0,78,0.00,,,0.00,,2013-03-15 10:41:00,
2013-03-15 03:52:00,48.0,41.0,30.09,South,171,0.0,2.0,76,0.00,,,0.00,,2013-03-15 10:52:00,
2013-03-15 04:02:00,48.0,41.0,30.09,South,171,2.0,3.0,77,0.00,,,0.00,,2013-03-15 11:02:00,
2013-03-15 04:12:00,48.0,41.0,30.09,South,171,2.0,3.0,77,0.00,,,0.00,,2013-03-15 11:12:00,
2013-03-15 04:22:00,47.0,41.0,30.09,North,360,3.0,4.0,79,0.00,,,0.00,,2013-03-15 11:22:00,
2013-03-15 04:32:00,47.0,41.0,30.09,North,360,0.0,2.0,79,0.00,,,0.00,,2013-03-15 11:32:00,
2013-03-15 04:41:00,47.0,41.0,30.09,North,360,0.0,2.0,79,0.00,,,0.00,,2013-03-15 11:41:00,
2013-03-15 04:52:00,46.0,40.0,30.09,North,360,0.0,1.0,80,0.00,,,0.00,,2013-03-15 11:52:00,
2013-03-15 05:01:00,46.0,40.0,30.09,North,360,0.0,1.0,80,0.00,,,0.00,,2013-03-15 12:01:00,
2013-03-15 05:12:00,46.0,40.0,30.09,North,360,0.0,1.0,80,0.00,,,0.00,,2013-03-15 12:12:00,
2013-03-15 05:22:00,46.0,40.0,30.09,North,9,0.0,1.0,80,0.00,,,0.00,,2013-03-15 12:22:00,
2013-03-15 05:31:00,46.0,40.0,30.09,North,9,0.0,0.0,79,0.00,,,0.00,,2013-03-15 12:31:00,
2013-03-15 05:42:00,46.0,40.0,30.09,North,9,0.0,0.0,79,0.00,,,0.00,,2013-03-15 12:42:00,
2013-03-15 05:52:00,46.0,40.0,30.09,North,9,0.0,0.0,79,0.00,,,0.00,,2013-03-15 12:52:00,
2013-03-15 06:01:00,46.0,40.0,30.09,North,9,1.0,1.0,80,0.00,,,0.00,,2013-03-15 13:01:00,
2013-03-15 06:12:00,46.0,40.0,30.09,North,9,1.0,1.0,80,0.00,,,0.00,,2013-03-15 13:12:00,
2013-03-15 06:22:00,46.0,40.0,30.09,NNE,32,0.0,2.0,80,0.00,,,0.00,,2013-03-15 13:22:00,
2013-03-15 06:31:00,45.0,39.0,30.08,NNE,32,1.0,2.0,80,0.00,,,0.00,,2013-03-15 13:31:00,
2013-03-15 06:41:00,45.0,39.0,30.08,NNE,32,1.0,2.0,80,0.00,,,0.00,,2013-03-15 13:41:00,
2013-03-15 06:52:00,45.0,39.0,30.08,NNE,32,0.0,0.0,80,0.00,,,0.00,,2013-03-15 13:52:00,
2013-03-15 07:01:00,45.0,40.0,30.08,NNE,32,0.0,1.0,81,0.00,,,0.00,,2013-03-15 14:01:00,
2013-03-15 07:11:00,45.0,40.0,30.08,NNE,32,0.0,1.0,81,0.00,,,0.00,,2013-03-15 14:11:00,
2013-03-15 07:22:00,45.0,40.0,30.08,NNE,32,1.0,2.0,81,0.00,,,0.00,,2013-03-15 14:22:00,
2013-03-15 07:32:00,45.0,40.0,30.08,NNE,32,1.0,3.0,81,0.00,,,0.00,,2013-03-15 14:32:00,
2013-03-15 07:41:00,45.0,40.0,30.08,NNE,32,1.0,3.0,81,0.00,,,0.00,,2013-03-15 14:41:00,
2013-03-15 07:52:00,45.0,40.0,30.09,NNE,32,0.0,1.0,81,0.00,,,0.00,,2013-03-15 14:52:00,
2013-03-15 08:01:00,45.0,40.0,30.09,NNE,32,0.0,1.0,81,0.00,,,0.00,,2013-03-15 15:01:00,
2013-03-15 08:12:00,45.0,40.0,30.09,NNE,32,0.0,1.0,81,0.00,,,0.00,,2013-03-15 15:12:00,
2013-03-15 08:22:00,45.0,40.0,30.09,ENE,67,1.0,3.0,82,0.00,,,0.00,,2013-03-15 15:22:00,
2013-03-15 08:32:00,47.0,41.0,30.09,ENE,76,1.0,3.0,80,0.00,,,0.00,,2013-03-15 15:32:00,
2013-03-15 08:42:00,49.0,41.0,30.10,ENE,76,1.0,3.0,73,0.00,,,0.00,,2013-03-15 15:42:00,
2013-03-15 08:52:00,49.0,41.0,30.10,ENE,76,1.0,3.0,73,0.00,,,0.00,,2013-03-15 15:52:00,
2013-03-15 09:02:00,51.0,41.0,30.10,ENE,76,0.0,2.0,68,0.00,,,0.00,,2013-03-15 16:02:00,
2013-03-15 09:12:00,52.0,41.0,30.10,ENE,76,0.0,2.0,66,0.00,,,0.00,,2013-03-15 16:12:00,
2013-03-15 09:22:00,52.0,41.0,30.10,ENE,76,0.0,2.0,66,0.00,,,0.00,,2013-03-15 16:22:00,
2013-03-15 09:32:00,52.0,41.0,30.10,ENE,76,0.0,0.0,65,0.00,,,0.00,,2013-03-15 16:32:00,
2013-03-15 09:42:00,52.0,41.0,30.10,ENE,76,0.0,0.0,65,0.00,,,0.00,,2013-03-15 16:42:00,
2013-03-15 09:52:00,53.0,41.0,30.10,ENE,76,0.0,2.0,63,0.00,,,0.00,,2013-03-15 16:52:00,
2013-03-15 10:01:00,55.0,42.0,30.10,ENE,78,1.0,2.0,62,0.00,,,0.00,,2013-03-15 17:01:00,
2013-03-15 10:11:00,55.0,42.0,30.10,ENE,78,1.0,2.0,62,0.00,,,0.00,,2013-03-15 17:11:00,
2013-03-15 10:22:00,55.0,42.0,30.10,ENE,69,1.0,3.0,61,0.00,,,0.00,,2013-03-15 17:22:00,
2013-03-15 10:32:00,56.0,43.0,30.10,North,360,2.0,4.0,62,0.00,,,0.00,,2013-03-15 17:32:00,
2013-03-15 10:42:00,56.0,43.0,30.10,North,360,2.0,4.0,62,0.00,,,0.00,,2013-03-15 17:42:00,
2013-03-15 10:52:00,56.0,45.0,30.10,North,10,1.0,4.0,67,0.00,,,0.00,,2013-03-15 17:52:00,
2013-03-15 11:02:00,57.0,45.0,30.10,NNW,342,1.0,3.0,63,0.00,,,0.00,,2013-03-15 18:02:00,
2013-03-15 11:11:00,57.0,45.0,30.10,NNW,342,1.0,3.0,63,0.00,,,0.00,,2013-03-15 18:11:00,
2013-03-15 11:21:00,59.0,44.0,30.10,NNW,342,1.0,3.0,57,0.00,,,0.00,,2013-03-15 18:21:00,
2013-03-15 11:32:00,59.0,43.0,30.10,NNW,342,1.0,3.0,56,0.00,,,0.00,,2013-03-15 18:32:00,
2013-03-15 11:42:00,59.0,43.0,30.10,NNW,342,1.0,3.0,56,0.00,,,0.00,,2013-03-15 18:42:00,
2013-03-15 11:52:00,61.0,44.0,30.10,WNW,283,2.0,5.0,53,0.00,,,0.00,,2013-03-15 18:52:00,
2013-03-15 12:01:00,62.0,44.0,30.10,WSW,242,1.0,4.0,51,0.00,,,0.00,,2013-03-15 19:01:00,
2013-03-15 12:12:00,62.0,44.0,30.10,WSW,242,1.0,4.0,51,0.00,,,0.00,,2013-03-15 19:12:00,
2013-03-15 12:22:00,63.0,43.0,30.10,WSW,252,1.0,5.0,48,0.00,,,0.00,,2013-03-15 19:22:00,
2013-03-15 12:31:00,64.0,43.0,30.09,NW,306,1.0,3.0,47,0.00,,,0.00,,2013-03-15 19:31:00,
2013-03-15 12:41:00,64.0,43.0,30.09,NW,306,1.0,3.0,47,0.00,,,0.00,,2013-03-15 19:41:00,
2013-03-15 12:52:00,65.0,44.0,30.09,SW,236,2.0,4.0,47,0.00,,,0.00,,2013-03-15 19:52:00,
2013-03-15 13:02:00,66.0,46.0,30.08,SSW,213,3.0,4.0,48,0.00,,,0.00,,2013-03-15 20:02:00,
2013-03-15 13:11:00,66.0,46.0,30.08,SSW,213,3.0,4.0,48,0.00,,,0.00,,2013-03-15 20:11:00,
2013-03-15 13:22:00,68.0,46.0,30.08,SSW,209,1.0,6.0,46,0.00,,,0.00,,2013-03-15 20:22:00,
2013-03-15 13:31:00,69.0,47.0,30.07,West,280,2.0,5.0,45,0.00,,,0.00,,2013-03-15 20:31:00,
2013-03-15 13:42:00,69.0,47.0,30.07,West,280,2.0,5.0,45,0.00,,,0.00,,2013-03-15 20:42:00,
2013-03-15 13:52:00,69.0,47.0,30.06,SSW,200,2.0,5.0,45,0.00,,,0.00,,2013-03-15 20:52:00,
2013-03-15 14:01:00,70.0,48.0,30.06,WSW,245,0.0,5.0,45,0.00,,,0.00,,2013-03-15 21:01:00,
2013-03-15 14:11:00,70.0,48.0,30.06,WSW,245,0.0,5.0,45,0.00,,,0.00,,2013-03-15 21:11:00,
2013-03-15 14:21:00,71.0,49.0,30.05,West,271,3.0,4.0,45,0.00,,,0.00,,2013-03-15 21:21:00,
2013-03-15 14:32:00,70.0,48.0,30.04,WNW,296,1.0,4.0,45,0.00,,,0.00,,2013-03-15 21:32:00,
2013-03-15 14:42:00,70.0,48.0,30.04,WNW,296,1.0,4.0,45,0.00,,,0.00,,2013-03-15 21:42:00,
2013-03-15 14:52:00,71.0,49.0,30.04,WNW,297,1.0,4.0,45,0.00,,,0.00,,2013-03-15 21:52:00,
2013-03-15 15:02:00,73.0,49.0,30.04,WNW,292,3.0,5.0,43,0.00,,,0.00,,2013-03-15 22:02:00,
2013-03-15 15:12:00,73.0,49.0,30.04,WNW,292,3.0,5.0,43,0.00,,,0.00,,2013-03-15 22:12:00,
2013-03-15 15:22:00,74.0,50.0,30.04,SW,219,2.0,8.0,43,0.00,,,0.00,,2013-03-15 22:22:00,
2013-03-15 15:32:00,74.0,50.0,30.04,NW,315,5.0,9.0,43,0.00,,,0.00,,2013-03-15 22:32:00,
2013-03-15 15:42:00,74.0,50.0,30.04,NW,315,5.0,9.0,43,0.00,,,0.00,,2013-03-15 22:42:00,
2013-03-15 15:52:00,73.0,50.0,30.03,West,259,2.0,8.0,44,0.00,,,0.00,,2013-03-15 22:52:00,
2013-03-15 16:02:00,74.0,51.0,30.03,WNW,302,3.0,6.0,44,0.00,,,0.00,,2013-03-15 23:02:00,
2013-03-15 16:11:00,74.0,51.0,30.03,WNW,302,3.0,6.0,44,0.00,,,0.00,,2013-03-15 23:11:00,
2013-03-15 16:21:00,75.0,53.0,30.03,WNW,292,5.0,9.0,46,0.00,,,0.00,,2013-03-15 23:21:00,
2013-03-15 16:32:00,75.0,52.0,30.02,WSW,254,4.0,9.0,45,0.00,,,0.00,,2013-03-15 23:32:00,
2013-03-15 16:42:00,75.0,52.0,30.02,WSW,254,4.0,9.0,45,0.00,,,0.00,,2013-03-15 23:42:00,
2013-03-15 16:53:00,75.0,52.0,30.02,SW,233,4.0,8.0,44,0.00,,,0.00,,2013-03-15 23:53:00,
2013-03-15 17:02:00,75.0,50.0,30.02,WSW,254,5.0,9.0,42,0.00,,,0.00,,2013-03-16 00:02:00,
2013-03-15 17:11:00,75.0,50.0,30.02,WSW,254,5.0,9.0,42,0.00,,,0.00,,2013-03-16 00:11:00,
2013-03-15 17:22:00,74.0,50.0,30.03,West,267,5.0,10.0,43,0.00,,,0.00,,2013-03-16 00:22:00,
2013-03-15 17:32:00,73.0,49.0,30.03,West,275,5.0,10.0,43,0.00,,,0.00,,2013-03-16 00:32:00,
2013-03-15 17:42:00,73.0,49.0,30.03,West,275,5.0,10.0,43,0.00,,,0.00,,2013-03-16 00:42:00,
2013-03-15 17:52:00,73.0,50.0,30.03,SW,227,3.0,7.0,44,0.00,,,0.00,,2013-03-16 00:52:00,
2013-03-15 18:01:00,72.0,50.0,30.03,SSW,197,3.0,6.0,46,0.00,,,0.00,,2013-03-16 01:01:00,
2013-03-15 18:12:00,72.0,50.0,30.03,SSW,197,3.0,6.0,46,0.00,,,0.00,,2013-03-16 01:12:00,
2013-03-15 18:21:00,70.0,50.0,30.02,South,190,4.0,6.0,49,0.00,,,0.00,,2013-03-16 01:21:00,
2013-03-15 18:32:00,69.0,50.0,30.02,South,188,2.0,6.0,50,0.00,,,0.00,,2013-03-16 01:32:00,
2013-03-15 18:41:00,69.0,50.0,30.02,South,188,2.0,6.0,50,0.00,,,0.00,,2013-03-16 01:41:00,
2013-03-15 18:52:00,68.0,49.0,30.02,SSW,206,2.0,6.0,50,0.00,,,0.00,,2013-03-16 01:52:00,
2013-03-15 19:02:00,66.0,48.0,30.02,South,190,3.0,7.0,52,0.00,,,0.00,,2013-03-16 02:02:00,
2013-03-15 19:11:00,66.0,48.0,30.02,South,190,3.0,7.0,52,0.00,,,0.00,,2013-03-16 02:11:00,
2013-03-15 19:22:00,65.0,47.0,30.02,South,180,3.0,5.0,53,0.00,,,0.00,,2013-03-16 02:22:00,
2013-03-15 19:32:00,65.0,47.0,30.01,South,182,2.0,4.0,53,0.00,,,0.00,,2013-03-16 02:32:00,
2013-03-15 19:42:00,65.0,47.0,30.01,South,182,2.0,4.0,53,0.00,,,0.00,,2013-03-16 02:42:00,
2013-03-15 19:52:00,64.0,46.0,30.01,SSW,197,1.0,3.0,52,0.00,,,0.00,,2013-03-16 02:52:00,
2013-03-15 20:01:00,63.0,46.0,30.01,SW,236,0.0,4.0,54,0.00,,,0.00,,2013-03-16 03:01:00,
2013-03-15 20:11:00,63.0,46.0,30.01,SW,236,0.0,4.0,54,0.00,,,0.00,,2013-03-16 03:11:00,
2013-03-15 20:21:00,63.0,48.0,30.01,SW,236,0.0,2.0,57,0.00,,,0.00,,2013-03-16 03:21:00,
2013-03-15 20:32:00,62.0,48.0,30.01,SW,236,1.0,2.0,60,0.00,,,0.00,,2013-03-16 03:32:00,
2013-03-15 20:42:00,62.0,48.0,30.01,SW,236,1.0,2.0,60,0.00,,,0.00,,2013-03-16 03:42:00,
2013-03-15 20:53:00,61.0,48.0,30.01,SW,236,0.0,0.0,62,0.00,,,0.00,,2013-03-16 03:53:00,
2013-03-15 21:02:00,61.0,49.0,30.01,SW,236,0.0,1.0,64,0.00,,,0.00,,2013-03-16 04:02:00,
2013-03-15 21:22:00,60.0,48.0,30.01,SW,236,0.0,0.0,65,0.00,,,0.00,,2013-03-16 04:22:00,
2013-03-15 21:32:00,59.0,48.0,30.02,SW,236,0.0,1.0,67,0.00,,,0.00,,2013-03-16 04:32:00,
2013-03-15 21:42:00,59.0,48.0,30.02,SW,236,0.0,1.0,67,0.00,,,0.00,,2013-03-16 04:42:00,
2013-03-15 21:52:00,59.0,48.0,30.02,SW,236,0.0,1.0,68,0.00,,,0.00,,2013-03-16 04:52:00,
2013-03-15 22:02:00,58.0,47.0,30.03,SW,236,0.0,0.0,68,0.00,,,0.00,,2013-03-16 05:02:00,
2013-03-15 22:12:00,58.0,47.0,30.03,SW,236,0.0,0.0,68,0.00,,,0.00,,2013-03-16 05:12:00,
2013-03-15 22:21:00,58.0,47.0,30.03,SW,236,0.0,1.0,68,0.00,,,0.00,,2013-03-16 05:21:00,
2013-03-15 22:31:00,57.0,47.0,30.04,SW,236,0.0,1.0,69,0.00,,,0.00,,2013-03-16 05:31:00,
2013-03-15 22:42:00,57.0,47.0,30.04,SW,236,0.0,1.0,69,0.00,,,0.00,,2013-03-16 05:42:00,
2013-03-15 22:52:00,56.0,46.0,30.04,SW,236,0.0,1.0,70,0.00,,,0.00,,2013-03-16 05:52:00,
2013-03-15 23:02:00,56.0,47.0,30.04,SW,236,1.0,2.0,71,0.00,,,0.00,,2013-03-16 06:02:00,
2013-03-15 23:12:00,56.0,47.0,30.04,SW,236,1.0,2.0,71,0.00,,,0.00,,2013-03-16 06:12:00,
2013-03-15 23:21:00,55.0,46.0,30.04,SW,236,1.0,2.0,72,0.00,,,0.00,,2013-03-16 06:21:00,
2013-03-15 23:32:00,55.0,47.0,30.04,SW,236,0.0,2.0,73,0.00,,,0.00,,2013-03-16 06:32:00,
2013-03-15 23:41:00,55.0,47.0,30.04,SW,236,0.0,2.0,73,0.00,,,0.00,,2013-03-16 06:41:00,
2013-03-15 23:52:00,54.0,47.0,30.04,SW,236,0.0,2.0,76,0.00,,,0.00,,2013-03-16 06:52:00,